Orbital Elements at Epoch 2456413.5 (2013-May-01.0) TDB
Reference: JPL 55 (heliocentric ecliptic J2000)
Element | Value | Uncertainty (1-sigma) | Units |
e | 1.000005095700877 | 1.6092e-08 | |
a | -2446.515869432519 | 7.7289 | au |
q | .01246671306154389 | 1.0063e-07 | au |
i | 62.16289448145616 | 0.00032658 | deg |
node | 295.6865417212286 | 5.5497e-05 | deg |
peri | 345.5411989977785 | 4.3516e-05 | deg |
M | -.001724786075348974 | 8.1729e-06 | deg |
tp | 2456625.264530258320 (2013-Nov-28.76453026) | 7.9908e-05 | TDB |
period | n/a n/a | n/a n/a | d yr |
n | 8.144829888390664E-6 | 3.8596e-08 | deg/d |
Q | n/a | n/a | au |
|
Additional Model Parameters
Parameter | Value | Uncertainty (1-sigma) |
A1 [EST] | 8.539073016664726E-8 | 2.168E-9 |
A2 [EST] | 5.751266901683991E-9 | 6.145E-10 |
|
| | Orbit Determination Parameters
Additional Information
|